owner,sensor,date,latitude,longitude,vertical_datum,sea_water_practical_salinity,qcFlag 
COMPS,ioos:station:USF.COMPS:ANC:1,2012-04-01T00:00:00Z,28.1930,-82.7890,1.0,30.064,1111122 
COMPS,ioos:station:USF.COMPS:ANC:1,2012-04-01T00:06:00Z,28.1930,-82.7890,1.0,30.068,1111122 
COMPS,ioos:station:USF.COMPS:ANC:1,2012-04-01T00:12:00Z,28.1930,-82.7890,1.0,30.065,1111122 
COMPS,ioos:station:USF.COMPS:ANC:1,2012-04-01T00:18:00Z,28.1930,-82.7890,1.0,30.1,1111122 
COMPS,ioos:station:USF.COMPS:ANC:1,2012-04-01T00:24:00Z,28.1930,-82.7890,1.0,30.047,1111122 
COMPS,ioos:station:USF.COMPS:ANC:1,2012-04-01T00:30:00Z,28.1930,-82.7890,1.0,29.972,1111122 
COMPS,ioos:station:USF.COMPS:ANC:1,2012-04-01T00:36:00Z,28.1930,-82.7890,1.0,29.833,1111122 
COMPS,ioos:station:USF.COMPS:ANC:1,2012-04-01T00:42:00Z,28.1930,-82.7890,1.0,30.022,1111122 
COMPS,ioos:station:USF.COMPS:ANC:1,2012-04-01T00:48:00Z,28.1930,-82.7890,1.0,30.009,1111122 
COMPS,ioos:station:USF.COMPS:ANC:1,2012-04-01T00:54:00Z,28.1930,-82.7890,0.0,30.027,1111122 
COMPS,ioos:station:USF.COMPS:ANC:1,2012-04-01T01:00:00Z,28.1930,-82.7890,1.0,30.015,1111122 
COMPS,ioos:station:USF.COMPS:ANC:1,2012-04-01T01:06:00Z,28.1930,-82.7890,1.0,29.93,1111122 
COMPS,ioos:station:USF.COMPS:ANC:1,2012-04-01T01:12:00Z,28.1930,-82.7890,1.0,30.033,1111122 
COMPS,ioos:station:USF.COMPS:ANC:1,2012-04-01T01:18:00Z,28.1930,-82.7890,1.0,30.025,1111122 
COMPS,ioos:station:USF.COMPS:ANC:1,2012-04-01T01:24:00Z,28.1930,-82.7890,1.0,30.0,1111122 
COMPS,ioos:station:USF.COMPS:ANC:1,2012-04-01T01:30:00Z,28.1930,-82.7890,1.0,30.024,1111122 
COMPS,ioos:station:USF.COMPS:ANC:1,2012-04-01T01:36:00Z,28.1930,-82.7890,1.0,30.014,1111122 
COMPS,ioos:station:USF.COMPS:ANC:1,2012-04-01T01:42:00Z,28.1930,-82.7890,1.0,30.004,1111122 
COMPS,ioos:station:USF.COMPS:ANC:1,2012-04-01T01:48:00Z,28.1930,-82.7890,1.0,29.986,1111122 
COMPS,ioos:station:USF.COMPS:ANC:1,2012-04-01T01:54:00Z,28.1930,-82.7890,0.0,29.956,1111122 
COMPS,ioos:station:USF.COMPS:ANC:1,2012-04-01T02:00:00Z,28.1930,-82.7890,1.0,29.959,1111122 
COMPS,ioos:station:USF.COMPS:ANC:1,2012-04-01T02:06:00Z,28.1930,-82.7890,1.0,29.978,1111122 
COMPS,ioos:station:USF.COMPS:ANC:1,2012-04-01T02:12:00Z,28.1930,-82.7890,1.0,29.954,1111122 
COMPS,ioos:station:USF.COMPS:ANC:1,2012-04-01T02:18:00Z,28.1930,-82.7890,1.0,29.959,1111122 
COMPS,ioos:station:USF.COMPS:ANC:1,2012-04-01T02:24:00Z,28.1930,-82.7890,1.0,29.949,1111122 
COMPS,ioos:station:USF.COMPS:ANC:1,2012-04-01T02:30:00Z,28.1930,-82.7890,1.0,29.927,1111122 
COMPS,ioos:station:USF.COMPS:ANC:1,2012-04-01T02:36:00Z,28.1930,-82.7890,1.0,29.897,1111122 
COMPS,ioos:station:USF.COMPS:ANC:1,2012-04-01T02:42:00Z,28.1930,-82.7890,1.0,29.916,1111122 
COMPS,ioos:station:USF.COMPS:ANC:1,2012-04-01T02:48:00Z,28.1930,-82.7890,1.0,29.913,1111122 
COMPS,ioos:station:USF.COMPS:ANC:1,2012-04-01T02:54:00Z,28.1930,-82.7890,0.0,29.907,1111122 
COMPS,ioos:station:USF.COMPS:ANC:1,2012-04-01T03:00:00Z,28.1930,-82.7890,1.0,29.898,1111122 
COMPS,ioos:station:USF.COMPS:ANC:1,2012-04-01T03:06:00Z,28.1930,-82.7890,1.0,29.917,1111122 
COMPS,ioos:station:USF.COMPS:ANC:1,2012-04-01T03:12:00Z,28.1930,-82.7890,1.0,29.922,1111122 
COMPS,ioos:station:USF.COMPS:ANC:1,2012-04-01T03:18:00Z,28.1930,-82.7890,1.0,29.933,1111122 
COMPS,ioos:station:USF.COMPS:ANC:1,2012-04-01T03:24:00Z,28.1930,-82.7890,1.0,29.938,1111122 
COMPS,ioos:station:USF.COMPS:ANC:1,2012-04-01T03:30:00Z,28.1930,-82.7890,1.0,29.95,1111122 
COMPS,ioos:station:USF.COMPS:ANC:1,2012-04-01T03:36:00Z,28.1930,-82.7890,1.0,29.963,1111122 
COMPS,ioos:station:USF.COMPS:ANC:1,2012-04-01T03:42:00Z,28.1930,-82.7890,1.0,29.969,1111122 
COMPS,ioos:station:USF.COMPS:ANC:1,2012-04-01T03:48:00Z,28.1930,-82.7890,1.0,29.987,1111122 
COMPS,ioos:station:USF.COMPS:ANC:1,2012-04-01T03:54:00Z,28.1930,-82.7890,0.0,29.987,1111122 
COMPS,ioos:station:USF.COMPS:ANC:1,2012-04-01T04:00:00Z,28.1930,-82.7890,1.0,29.997,1111122 
COMPS,ioos:station:USF.COMPS:ANC:1,2012-04-01T04:06:00Z,28.1930,-82.7890,1.0,30.003,1111122 
COMPS,ioos:station:USF.COMPS:ANC:1,2012-04-01T04:12:00Z,28.1930,-82.7890,1.0,29.991,1111122 
COMPS,ioos:station:USF.COMPS:ANC:1,2012-04-01T04:18:00Z,28.1930,-82.7890,1.0,30.011,1111122 
COMPS,ioos:station:USF.COMPS:ANC:1,2012-04-01T04:24:00Z,28.1930,-82.7890,1.0,30.022,1111122 
COMPS,ioos:station:USF.COMPS:ANC:1,2012-04-01T04:30:00Z,28.1930,-82.7890,1.0,30.02,1111122 
COMPS,ioos:station:USF.COMPS:ANC:1,2012-04-01T04:36:00Z,28.1930,-82.7890,1.0,30.01,1111122 
COMPS,ioos:station:USF.COMPS:ANC:1,2012-04-01T04:42:00Z,28.1930,-82.7890,1.0,29.958,1111122 
COMPS,ioos:station:USF.COMPS:ANC:1,2012-04-01T04:48:00Z,28.1930,-82.7890,1.0,29.948,1111122 
COMPS,ioos:station:USF.COMPS:ANC:1,2012-04-01T04:54:00Z,28.1930,-82.7890,1.0,29.908,1111122 
COMPS,ioos:station:USF.COMPS:ANC:1,2012-04-01T05:00:00Z,28.1930,-82.7890,1.0,29.895,1111122 
COMPS,ioos:station:USF.COMPS:ANC:1,2012-04-01T05:06:00Z,28.1930,-82.7890,1.0,29.926,1111122 
COMPS,ioos:station:USF.COMPS:ANC:1,2012-04-01T05:12:00Z,28.1930,-82.7890,1.0,29.914,1111122 
COMPS,ioos:station:USF.COMPS:ANC:1,2012-04-01T05:18:00Z,28.1930,-82.7890,1.0,29.926,1111122 
COMPS,ioos:station:USF.COMPS:ANC:1,2012-04-01T05:24:00Z,28.1930,-82.7890,1.0,29.903,1111122 
COMPS,ioos:station:USF.COMPS:ANC:1,2012-04-01T05:30:00Z,28.1930,-82.7890,1.0,29.944,1111122 
COMPS,ioos:station:USF.COMPS:ANC:1,2012-04-01T05:36:00Z,28.1930,-82.7890,1.0,29.937,1111122 
COMPS,ioos:station:USF.COMPS:ANC:1,2012-04-01T05:42:00Z,28.1930,-82.7890,1.0,29.921,1111122 
COMPS,ioos:station:USF.COMPS:ANC:1,2012-04-01T05:48:00Z,28.1930,-82.7890,1.0,29.96,1111122 
COMPS,ioos:station:USF.COMPS:ANC:1,2012-04-01T05:54:00Z,28.1930,-82.7890,0.0,29.967,1111122 
COMPS,ioos:station:USF.COMPS:ANC:1,2012-04-01T06:00:00Z,28.1930,-82.7890,1.0,29.975,1111122 
COMPS,ioos:station:USF.COMPS:ANC:1,2012-04-01T06:06:00Z,28.1930,-82.7890,1.0,29.94,1111122 
COMPS,ioos:station:USF.COMPS:ANC:1,2012-04-01T06:12:00Z,28.1930,-82.7890,1.0,29.915,1111122 
COMPS,ioos:station:USF.COMPS:ANC:1,2012-04-01T06:18:00Z,28.1930,-82.7890,1.0,29.906,1111122 
COMPS,ioos:station:USF.COMPS:ANC:1,2012-04-01T06:24:00Z,28.1930,-82.7890,1.0,29.874,1111122 
COMPS,ioos:station:USF.COMPS:ANC:1,2012-04-01T06:30:00Z,28.1930,-82.7890,1.0,29.88,1111122 
COMPS,ioos:station:USF.COMPS:ANC:1,2012-04-01T06:36:00Z,28.1930,-82.7890,1.0,29.88,1111122 
COMPS,ioos:station:USF.COMPS:ANC:1,2012-04-01T06:42:00Z,28.1930,-82.7890,1.0,29.893,1111122 
COMPS,ioos:station:USF.COMPS:ANC:1,2012-04-01T06:48:00Z,28.1930,-82.7890,1.0,29.898,1111122 
COMPS,ioos:station:USF.COMPS:ANC:1,2012-04-01T06:54:00Z,28.1930,-82.7890,0.0,29.889,1111122 
COMPS,ioos:station:USF.COMPS:ANC:1,2012-04-01T07:00:00Z,28.1930,-82.7890,1.0,29.909,1111122 
COMPS,ioos:station:USF.COMPS:ANC:1,2012-04-01T07:06:00Z,28.1930,-82.7890,1.0,29.935,1111122 
COMPS,ioos:station:USF.COMPS:ANC:1,2012-04-01T07:12:00Z,28.1930,-82.7890,1.0,29.939,1111122 
COMPS,ioos:station:USF.COMPS:ANC:1,2012-04-01T07:18:00Z,28.1930,-82.7890,1.0,29.924,1111122 
COMPS,ioos:station:USF.COMPS:ANC:1,2012-04-01T07:24:00Z,28.1930,-82.7890,1.0,29.917,1111122 
COMPS,ioos:station:USF.COMPS:ANC:1,2012-04-01T07:30:00Z,28.1930,-82.7890,1.0,29.916,1111122 
COMPS,ioos:station:USF.COMPS:ANC:1,2012-04-01T07:36:00Z,28.1930,-82.7890,1.0,29.891,1111122 
COMPS,ioos:station:USF.COMPS:ANC:1,2012-04-01T07:42:00Z,28.1930,-82.7890,1.0,29.875,1111122 
COMPS,ioos:station:USF.COMPS:ANC:1,2012-04-01T07:48:00Z,28.1930,-82.7890,1.0,29.896,1111122 
COMPS,ioos:station:USF.COMPS:ANC:1,2012-04-01T07:54:00Z,28.1930,-82.7890,0.0,29.892,1111122 
COMPS,ioos:station:USF.COMPS:ANC:1,2012-04-01T08:00:00Z,28.1930,-82.7890,1.0,29.896,1111122 
COMPS,ioos:station:USF.COMPS:ANC:1,2012-04-01T08:06:00Z,28.1930,-82.7890,1.0,29.894,1111122 
COMPS,ioos:station:USF.COMPS:ANC:1,2012-04-01T08:12:00Z,28.1930,-82.7890,1.0,29.885,1111122 
COMPS,ioos:station:USF.COMPS:ANC:1,2012-04-01T08:18:00Z,28.1930,-82.7890,1.0,29.898,1111122 
COMPS,ioos:station:USF.COMPS:ANC:1,2012-04-01T08:24:00Z,28.1930,-82.7890,1.0,29.883,1111122 
COMPS,ioos:station:USF.COMPS:ANC:1,2012-04-01T08:30:00Z,28.1930,-82.7890,1.0,29.876,1111122 
COMPS,ioos:station:USF.COMPS:ANC:1,2012-04-01T08:36:00Z,28.1930,-82.7890,1.0,29.868,1111122 
COMPS,ioos:station:USF.COMPS:ANC:1,2012-04-01T08:42:00Z,28.1930,-82.7890,1.0,29.888,1111122 
COMPS,ioos:station:USF.COMPS:ANC:1,2012-04-01T08:48:00Z,28.1930,-82.7890,1.0,29.879,1111122 
COMPS,ioos:station:USF.COMPS:ANC:1,2012-04-01T08:54:00Z,28.1930,-82.7890,1.0,29.851,1111122 
COMPS,ioos:station:USF.COMPS:ANC:1,2012-04-01T09:00:00Z,28.1930,-82.7890,1.0,29.857,1111122 
COMPS,ioos:station:USF.COMPS:ANC:1,2012-04-01T09:06:00Z,28.1930,-82.7890,1.0,29.855,1111122 
COMPS,ioos:station:USF.COMPS:ANC:1,2012-04-01T09:12:00Z,28.1930,-82.7890,1.0,29.853,1111122 
COMPS,ioos:station:USF.COMPS:ANC:1,2012-04-01T09:18:00Z,28.1930,-82.7890,1.0,29.844,1111122 
COMPS,ioos:station:USF.COMPS:ANC:1,2012-04-01T09:24:00Z,28.1930,-82.7890,1.0,29.809,1111122 
COMPS,ioos:station:USF.COMPS:ANC:1,2012-04-01T09:30:00Z,28.1930,-82.7890,1.0,29.772,1111122 
COMPS,ioos:station:USF.COMPS:ANC:1,2012-04-01T09:36:00Z,28.1930,-82.7890,1.0,29.773,1111122 
COMPS,ioos:station:USF.COMPS:ANC:1,2012-04-01T09:42:00Z,28.1930,-82.7890,1.0,29.753,1111122 
COMPS,ioos:station:USF.COMPS:ANC:1,2012-04-01T09:48:00Z,28.1930,-82.7890,1.0,29.68,1111122 
COMPS,ioos:station:USF.COMPS:ANC:1,2012-04-01T09:54:00Z,28.1930,-82.7890,1.0,29.624,1111122 
COMPS,ioos:station:USF.COMPS:ANC:1,2012-04-01T10:00:00Z,28.1930,-82.7890,1.0,29.614,1111122 
COMPS,ioos:station:USF.COMPS:ANC:1,2012-04-01T10:06:00Z,28.1930,-82.7890,1.0,29.63,1111122 
COMPS,ioos:station:USF.COMPS:ANC:1,2012-04-01T10:12:00Z,28.1930,-82.7890,1.0,29.652,1111122 
COMPS,ioos:station:USF.COMPS:ANC:1,2012-04-01T10:18:00Z,28.1930,-82.7890,1.0,29.569,1111122 
COMPS,ioos:station:USF.COMPS:ANC:1,2012-04-01T10:24:00Z,28.1930,-82.7890,1.0,29.491,1111122 
COMPS,ioos:station:USF.COMPS:ANC:1,2012-04-01T10:30:00Z,28.1930,-82.7890,1.0,29.245,1111122 
COMPS,ioos:station:USF.COMPS:ANC:1,2012-04-01T10:36:00Z,28.1930,-82.7890,1.0,29.007,1111122 
COMPS,ioos:station:USF.COMPS:ANC:1,2012-04-01T10:42:00Z,28.1930,-82.7890,1.0,28.968,1111122 
COMPS,ioos:station:USF.COMPS:ANC:1,2012-04-01T10:48:00Z,28.1930,-82.7890,1.0,28.982,1111122 
COMPS,ioos:station:USF.COMPS:ANC:1,2012-04-01T10:54:00Z,28.1930,-82.7890,1.0,28.954,1111122 
COMPS,ioos:station:USF.COMPS:ANC:1,2012-04-01T11:00:00Z,28.1930,-82.7890,1.0,28.946,1111122 
COMPS,ioos:station:USF.COMPS:ANC:1,2012-04-01T11:06:00Z,28.1930,-82.7890,1.0,28.911,1111122 
COMPS,ioos:station:USF.COMPS:ANC:1,2012-04-01T11:12:00Z,28.1930,-82.7890,1.0,28.882,1111122 
COMPS,ioos:station:USF.COMPS:ANC:1,2012-04-01T11:18:00Z,28.1930,-82.7890,1.0,28.859,1111122 
COMPS,ioos:station:USF.COMPS:ANC:1,2012-04-01T11:24:00Z,28.1930,-82.7890,1.0,28.842,1111122 
COMPS,ioos:station:USF.COMPS:ANC:1,2012-04-01T11:30:00Z,28.1930,-82.7890,1.0,28.858,1111122 
COMPS,ioos:station:USF.COMPS:ANC:1,2012-04-01T11:36:00Z,28.1930,-82.7890,1.0,28.848,1111122 
COMPS,ioos:station:USF.COMPS:ANC:1,2012-04-01T11:42:00Z,28.1930,-82.7890,1.0,28.834,1111122 
COMPS,ioos:station:USF.COMPS:ANC:1,2012-04-01T11:48:00Z,28.1930,-82.7890,1.0,28.845,1111122 
COMPS,ioos:station:USF.COMPS:ANC:1,2012-04-01T11:54:00Z,28.1930,-82.7890,0.0,28.854,1111122 
COMPS,ioos:station:USF.COMPS:ANC:1,2012-04-01T12:00:00Z,28.1930,-82.7890,1.0,28.915,1111122 
COMPS,ioos:station:USF.COMPS:ANC:1,2012-04-01T12:06:00Z,28.1930,-82.7890,1.0,29.382,1111122 
COMPS,ioos:station:USF.COMPS:ANC:1,2012-04-01T12:12:00Z,28.1930,-82.7890,1.0,29.577,1111122 
COMPS,ioos:station:USF.COMPS:ANC:1,2012-04-01T12:18:00Z,28.1930,-82.7890,1.0,29.674,1111122 
COMPS,ioos:station:USF.COMPS:ANC:1,2012-04-01T12:24:00Z,28.1930,-82.7890,1.0,29.683,1111122 
COMPS,ioos:station:USF.COMPS:ANC:1,2012-04-01T12:30:00Z,28.1930,-82.7890,1.0,29.646,1111122 
COMPS,ioos:station:USF.COMPS:ANC:1,2012-04-01T12:36:00Z,28.1930,-82.7890,1.0,29.645,1111122 
COMPS,ioos:station:USF.COMPS:ANC:1,2012-04-01T12:42:00Z,28.1930,-82.7890,1.0,29.617,1111122 
COMPS,ioos:station:USF.COMPS:ANC:1,2012-04-01T12:48:00Z,28.1930,-82.7890,1.0,29.555,1111122 
COMPS,ioos:station:USF.COMPS:ANC:1,2012-04-01T12:54:00Z,28.1930,-82.7890,0.0,29.531,1111122 
COMPS,ioos:station:USF.COMPS:ANC:1,2012-04-01T13:00:00Z,28.1930,-82.7890,1.0,29.489,1111122 
COMPS,ioos:station:USF.COMPS:ANC:1,2012-04-01T13:06:00Z,28.1930,-82.7890,1.0,29.471,1111122 
COMPS,ioos:station:USF.COMPS:ANC:1,2012-04-01T13:12:00Z,28.1930,-82.7890,1.0,29.444,1111122 
COMPS,ioos:station:USF.COMPS:ANC:1,2012-04-01T13:18:00Z,28.1930,-82.7890,1.0,29.431,1111122 
COMPS,ioos:station:USF.COMPS:ANC:1,2012-04-01T13:24:00Z,28.1930,-82.7890,1.0,29.426,1111122 
COMPS,ioos:station:USF.COMPS:ANC:1,2012-04-01T13:30:00Z,28.1930,-82.7890,1.0,29.421,1111122 
COMPS,ioos:station:USF.COMPS:ANC:1,2012-04-01T13:36:00Z,28.1930,-82.7890,1.0,29.408,1111122 
COMPS,ioos:station:USF.COMPS:ANC:1,2012-04-01T13:42:00Z,28.1930,-82.7890,1.0,29.403,1111122 
COMPS,ioos:station:USF.COMPS:ANC:1,2012-04-01T13:48:00Z,28.1930,-82.7890,1.0,29.398,1111122 
COMPS,ioos:station:USF.COMPS:ANC:1,2012-04-01T13:54:00Z,28.1930,-82.7890,0.0,29.405,1111122 
COMPS,ioos:station:USF.COMPS:ANC:1,2012-04-01T14:00:00Z,28.1930,-82.7890,1.0,29.461,1111122 
COMPS,ioos:station:USF.COMPS:ANC:1,2012-04-01T14:06:00Z,28.1930,-82.7890,1.0,29.497,1111122 
COMPS,ioos:station:USF.COMPS:ANC:1,2012-04-01T14:12:00Z,28.1930,-82.7890,1.0,29.56,1111122 
COMPS,ioos:station:USF.COMPS:ANC:1,2012-04-01T14:18:00Z,28.1930,-82.7890,1.0,29.535,1111122 
COMPS,ioos:station:USF.COMPS:ANC:1,2012-04-01T14:24:00Z,28.1930,-82.7890,1.0,29.563,1111122 
COMPS,ioos:station:USF.COMPS:ANC:1,2012-04-01T14:30:00Z,28.1930,-82.7890,1.0,29.617,1111122 
COMPS,ioos:station:USF.COMPS:ANC:1,2012-04-01T14:36:00Z,28.1930,-82.7890,1.0,29.606,1111122 
COMPS,ioos:station:USF.COMPS:ANC:1,2012-04-01T14:42:00Z,28.1930,-82.7890,1.0,29.681,1111122 
COMPS,ioos:station:USF.COMPS:ANC:1,2012-04-01T14:48:00Z,28.1930,-82.7890,1.0,29.649,1111122 
COMPS,ioos:station:USF.COMPS:ANC:1,2012-04-01T14:54:00Z,28.1930,-82.7890,1.0,30.071,1111122 
COMPS,ioos:station:USF.COMPS:ANC:1,2012-04-01T15:00:00Z,28.1930,-82.7890,1.0,30.1,1111122 
COMPS,ioos:station:USF.COMPS:ANC:1,2012-04-01T15:06:00Z,28.1930,-82.7890,1.0,30.148,1111122 
COMPS,ioos:station:USF.COMPS:ANC:1,2012-04-01T15:12:00Z,28.1930,-82.7890,1.0,30.158,1111122 
COMPS,ioos:station:USF.COMPS:ANC:1,2012-04-01T15:18:00Z,28.1930,-82.7890,1.0,30.151,1111122 
COMPS,ioos:station:USF.COMPS:ANC:1,2012-04-01T15:24:00Z,28.1930,-82.7890,1.0,30.096,1111122 
COMPS,ioos:station:USF.COMPS:ANC:1,2012-04-01T15:30:00Z,28.1930,-82.7890,1.0,30.063,1111122 
COMPS,ioos:station:USF.COMPS:ANC:1,2012-04-01T15:36:00Z,28.1930,-82.7890,1.0,30.044,1111122 
COMPS,ioos:station:USF.COMPS:ANC:1,2012-04-01T15:42:00Z,28.1930,-82.7890,1.0,30.039,1111122 
COMPS,ioos:station:USF.COMPS:ANC:1,2012-04-01T15:48:00Z,28.1930,-82.7890,1.0,30.063,1111122 
COMPS,ioos:station:USF.COMPS:ANC:1,2012-04-01T15:54:00Z,28.1930,-82.7890,0.0,30.12,1111122 
COMPS,ioos:station:USF.COMPS:ANC:1,2012-04-02T13:00:00Z,28.1930,-82.7890,1.0,28.985,1111122 
COMPS,ioos:station:USF.COMPS:ANC:1,2012-04-02T13:06:00Z,28.1930,-82.7890,1.0,29.08,1111122 
COMPS,ioos:station:USF.COMPS:ANC:1,2012-04-02T13:12:00Z,28.1930,-82.7890,1.0,28.884,1111122 
COMPS,ioos:station:USF.COMPS:ANC:1,2012-04-02T13:18:00Z,28.1930,-82.7890,1.0,28.318,1111122 
COMPS,ioos:station:USF.COMPS:ANC:1,2012-04-02T13:24:00Z,28.1930,-82.7890,1.0,28.412,1111122 
COMPS,ioos:station:USF.COMPS:ANC:1,2012-04-02T13:30:00Z,28.1930,-82.7890,1.0,28.193,1111122 
COMPS,ioos:station:USF.COMPS:ANC:1,2012-04-02T13:36:00Z,28.1930,-82.7890,1.0,28.028,1111122 
COMPS,ioos:station:USF.COMPS:ANC:1,2012-04-02T13:42:00Z,28.1930,-82.7890,1.0,28.591,1111122 
COMPS,ioos:station:USF.COMPS:ANC:1,2012-04-02T13:48:00Z,28.1930,-82.7890,1.0,28.587,1111122 
COMPS,ioos:station:USF.COMPS:ANC:1,2012-04-02T13:54:00Z,28.1930,-82.7890,0.0,28.747,1111122 
COMPS,ioos:station:USF.COMPS:ANC:1,2012-04-02T14:00:00Z,28.1930,-82.7890,1.0,28.497,1111122 
COMPS,ioos:station:USF.COMPS:ANC:1,2012-04-02T14:06:00Z,28.1930,-82.7890,1.0,28.928,1111122 
COMPS,ioos:station:USF.COMPS:ANC:1,2012-04-02T14:12:00Z,28.1930,-82.7890,1.0,28.148,1111122 
COMPS,ioos:station:USF.COMPS:ANC:1,2012-04-02T14:18:00Z,28.1930,-82.7890,1.0,28.638,1111122 
COMPS,ioos:station:USF.COMPS:ANC:1,2012-04-02T14:24:00Z,28.1930,-82.7890,1.0,28.504,1111122 
COMPS,ioos:station:USF.COMPS:ANC:1,2012-04-02T14:30:00Z,28.1930,-82.7890,1.0,28.606,1111122 
COMPS,ioos:station:USF.COMPS:ANC:1,2012-04-02T14:36:00Z,28.1930,-82.7890,1.0,28.697,1111122 
COMPS,ioos:station:USF.COMPS:ANC:1,2012-04-02T14:42:00Z,28.1930,-82.7890,1.0,28.741,1111122 
COMPS,ioos:station:USF.COMPS:ANC:1,2012-04-02T14:48:00Z,28.1930,-82.7890,1.0,28.806,1111122 
COMPS,ioos:station:USF.COMPS:ANC:1,2012-04-02T14:54:00Z,28.1930,-82.7890,0.0,28.896,1111122 
COMPS,ioos:station:USF.COMPS:ANC:1,2012-04-02T15:00:00Z,28.1930,-82.7890,1.0,28.862,1111122 
COMPS,ioos:station:USF.COMPS:ANC:1,2012-04-02T15:06:00Z,28.1930,-82.7890,1.0,28.945,1111122 
COMPS,ioos:station:USF.COMPS:ANC:1,2012-04-02T15:12:00Z,28.1930,-82.7890,1.0,29.001,1111122 
COMPS,ioos:station:USF.COMPS:ANC:1,2012-04-02T15:18:00Z,28.1930,-82.7890,1.0,29.159,1111122 
COMPS,ioos:station:USF.COMPS:ANC:1,2012-04-02T15:24:00Z,28.1930,-82.7890,1.0,29.033,1111122 
COMPS,ioos:station:USF.COMPS:ANC:1,2012-04-02T15:30:00Z,28.1930,-82.7890,1.0,28.982,1111122 
COMPS,ioos:station:USF.COMPS:ANC:1,2012-04-02T15:36:00Z,28.1930,-82.7890,1.0,29.159,1111122 
COMPS,ioos:station:USF.COMPS:ANC:1,2012-04-02T15:42:00Z,28.1930,-82.7890,1.0,28.941,1111122 
COMPS,ioos:station:USF.COMPS:ANC:1,2012-04-02T15:48:00Z,28.1930,-82.7890,1.0,28.671,1111122 
COMPS,ioos:station:USF.COMPS:ANC:1,2012-04-02T15:54:00Z,28.1930,-82.7890,0.0,28.933,1111122 
COMPS,ioos:station:USF.COMPS:ANC:1,2012-04-02T16:00:00Z,28.1930,-82.7890,1.0,29.11,1111122 
COMPS,ioos:station:USF.COMPS:ANC:1,2012-04-02T16:06:00Z,28.1930,-82.7890,1.0,28.945,1111122 
COMPS,ioos:station:USF.COMPS:ANC:1,2012-04-02T16:12:00Z,28.1930,-82.7890,1.0,28.869,1111122 
COMPS,ioos:station:USF.COMPS:ANC:1,2012-04-02T16:18:00Z,28.1930,-82.7890,1.0,29.196,1111122 
COMPS,ioos:station:USF.COMPS:ANC:1,2012-04-02T16:24:00Z,28.1930,-82.7890,1.0,29.127,1111122 
COMPS,ioos:station:USF.COMPS:ANC:1,2012-04-02T16:30:00Z,28.1930,-82.7890,1.0,29.023,1111122 
COMPS,ioos:station:USF.COMPS:ANC:1,2012-04-02T16:36:00Z,28.1930,-82.7890,1.0,29.184,1111122 
COMPS,ioos:station:USF.COMPS:ANC:1,2012-04-02T16:42:00Z,28.1930,-82.7890,1.0,29.029,1111122 
COMPS,ioos:station:USF.COMPS:ANC:1,2012-04-02T16:48:00Z,28.1930,-82.7890,1.0,29.311,1111122 
COMPS,ioos:station:USF.COMPS:ANC:1,2012-04-02T16:54:00Z,28.1930,-82.7890,0.0,29.149,1111122 
COMPS,ioos:station:USF.COMPS:ANC:1,2012-04-02T17:00:00Z,28.1930,-82.7890,1.0,29.172,1111122 
COMPS,ioos:station:USF.COMPS:ANC:1,2012-04-02T17:06:00Z,28.1930,-82.7890,1.0,29.358,1111122 
COMPS,ioos:station:USF.COMPS:ANC:1,2012-04-02T17:12:00Z,28.1930,-82.7890,1.0,29.384,1111122 
COMPS,ioos:station:USF.COMPS:ANC:1,2012-04-02T17:18:00Z,28.1930,-82.7890,1.0,29.382,1111122 
COMPS,ioos:station:USF.COMPS:ANC:1,2012-04-02T17:24:00Z,28.1930,-82.7890,1.0,29.284,1111122 
COMPS,ioos:station:USF.COMPS:ANC:1,2012-04-02T17:30:00Z,28.1930,-82.7890,1.0,29.176,1111122 
COMPS,ioos:station:USF.COMPS:ANC:1,2012-04-02T17:36:00Z,28.1930,-82.7890,1.0,29.125,1111122 
COMPS,ioos:station:USF.COMPS:ANC:1,2012-04-02T17:42:00Z,28.1930,-82.7890,1.0,29.482,1111122 
COMPS,ioos:station:USF.COMPS:ANC:1,2012-04-02T17:48:00Z,28.1930,-82.7890,1.0,29.359,1111122 
COMPS,ioos:station:USF.COMPS:ANC:1,2012-04-02T17:54:00Z,28.1930,-82.7890,0.0,29.547,1111122 
COMPS,ioos:station:USF.COMPS:ANC:1,2012-04-02T18:00:00Z,28.1930,-82.7890,1.0,29.441,1111122 
COMPS,ioos:station:USF.COMPS:ANC:1,2012-04-02T18:06:00Z,28.1930,-82.7890,1.0,29.376,1111122 
COMPS,ioos:station:USF.COMPS:ANC:1,2012-04-02T18:12:00Z,28.1930,-82.7890,1.0,29.397,1111122 
COMPS,ioos:station:USF.COMPS:ANC:1,2012-04-02T18:18:00Z,28.1930,-82.7890,1.0,29.611,1111122 
COMPS,ioos:station:USF.COMPS:ANC:1,2012-04-02T18:24:00Z,28.1930,-82.7890,1.0,29.544,1111122 
COMPS,ioos:station:USF.COMPS:ANC:1,2012-04-02T18:30:00Z,28.1930,-82.7890,1.0,29.668,1111122 
COMPS,ioos:station:USF.COMPS:ANC:1,2012-04-02T18:36:00Z,28.1930,-82.7890,1.0,29.704,1111122 
COMPS,ioos:station:USF.COMPS:ANC:1,2012-04-02T18:42:00Z,28.1930,-82.7890,1.0,29.739,1111122 
COMPS,ioos:station:USF.COMPS:ANC:1,2012-04-02T18:48:00Z,28.1930,-82.7890,1.0,29.678,1111122 
COMPS,ioos:station:USF.COMPS:ANC:1,2012-04-02T18:54:00Z,28.1930,-82.7890,0.0,29.748,1111122 
COMPS,ioos:station:USF.COMPS:ANC:1,2012-04-02T19:00:00Z,28.1930,-82.7890,1.0,29.82,1111122 
COMPS,ioos:station:USF.COMPS:ANC:1,2012-04-02T19:06:00Z,28.1930,-82.7890,1.0,29.745,1111122 
COMPS,ioos:station:USF.COMPS:ANC:1,2012-04-02T19:12:00Z,28.1930,-82.7890,1.0,29.828,1111122 
COMPS,ioos:station:USF.COMPS:ANC:1,2012-04-02T19:18:00Z,28.1930,-82.7890,1.0,29.739,1111122 
COMPS,ioos:station:USF.COMPS:ANC:1,2012-04-02T19:24:00Z,28.1930,-82.7890,1.0,29.652,1111122 
COMPS,ioos:station:USF.COMPS:ANC:1,2012-04-02T19:30:00Z,28.1930,-82.7890,1.0,29.825,1111122 
COMPS,ioos:station:USF.COMPS:ANC:1,2012-04-02T19:36:00Z,28.1930,-82.7890,1.0,29.827,1111122 
COMPS,ioos:station:USF.COMPS:ANC:1,2012-04-02T19:42:00Z,28.1930,-82.7890,1.0,29.753,1111122 
COMPS,ioos:station:USF.COMPS:ANC:1,2012-04-02T19:48:00Z,28.1930,-82.7890,1.0,29.845,1111122 
COMPS,ioos:station:USF.COMPS:ANC:1,2012-04-02T19:54:00Z,28.1930,-82.7890,0.0,29.841,1111122 
COMPS,ioos:station:USF.COMPS:ANC:1,2012-04-02T20:00:00Z,28.1930,-82.7890,1.0,29.882,1111122 
COMPS,ioos:station:USF.COMPS:ANC:1,2012-04-02T20:06:00Z,28.1930,-82.7890,1.0,29.872,1111122 
COMPS,ioos:station:USF.COMPS:ANC:1,2012-04-02T20:12:00Z,28.1930,-82.7890,1.0,29.778,1111122 
COMPS,ioos:station:USF.COMPS:ANC:1,2012-04-02T20:18:00Z,28.1930,-82.7890,1.0,29.876,1111122 
COMPS,ioos:station:USF.COMPS:ANC:1,2012-04-02T20:24:00Z,28.1930,-82.7890,1.0,29.861,1111122 
COMPS,ioos:station:USF.COMPS:ANC:1,2012-04-02T20:30:00Z,28.1930,-82.7890,1.0,29.867,1111122 
COMPS,ioos:station:USF.COMPS:ANC:1,2012-04-02T20:36:00Z,28.1930,-82.7890,1.0,29.878,1111122 
COMPS,ioos:station:USF.COMPS:ANC:1,2012-04-02T20:42:00Z,28.1930,-82.7890,1.0,29.896,1111122 
COMPS,ioos:station:USF.COMPS:ANC:1,2012-04-02T20:48:00Z,28.1930,-82.7890,1.0,29.787,1111122 
COMPS,ioos:station:USF.COMPS:ANC:1,2012-04-02T20:54:00Z,28.1930,-82.7890,0.0,29.953,1111122 
COMPS,ioos:station:USF.COMPS:ANC:1,2012-04-02T21:00:00Z,28.1930,-82.7890,1.0,29.964,1111122 
COMPS,ioos:station:USF.COMPS:ANC:1,2012-04-02T21:06:00Z,28.1930,-82.7890,1.0,29.984,1111122 
COMPS,ioos:station:USF.COMPS:ANC:1,2012-04-02T21:12:00Z,28.1930,-82.7890,1.0,29.977,1111122 
COMPS,ioos:station:USF.COMPS:ANC:1,2012-04-02T21:18:00Z,28.1930,-82.7890,1.0,29.962,1111122 
COMPS,ioos:station:USF.COMPS:ANC:1,2012-04-02T21:24:00Z,28.1930,-82.7890,1.0,29.971,1111122 
COMPS,ioos:station:USF.COMPS:ANC:1,2012-04-02T21:30:00Z,28.1930,-82.7890,1.0,29.91,1111122 
COMPS,ioos:station:USF.COMPS:ANC:1,2012-04-02T21:36:00Z,28.1930,-82.7890,1.0,29.86,1111122 
COMPS,ioos:station:USF.COMPS:ANC:1,2012-04-02T21:42:00Z,28.1930,-82.7890,1.0,29.877,1111122 
COMPS,ioos:station:USF.COMPS:ANC:1,2012-04-02T21:48:00Z,28.1930,-82.7890,1.0,29.91,1111122 
COMPS,ioos:station:USF.COMPS:ANC:1,2012-04-02T21:54:00Z,28.1930,-82.7890,0.0,29.88,1111122 
COMPS,ioos:station:USF.COMPS:ANC:1,2012-04-02T22:00:00Z,28.1930,-82.7890,1.0,29.83,1111122 
COMPS,ioos:station:USF.COMPS:ANC:1,2012-04-02T22:06:00Z,28.1930,-82.7890,1.0,29.781,1111122 
COMPS,ioos:station:USF.COMPS:ANC:1,2012-04-02T22:12:00Z,28.1930,-82.7890,1.0,29.738,1111122 
COMPS,ioos:station:USF.COMPS:ANC:1,2012-04-02T22:18:00Z,28.1930,-82.7890,1.0,29.756,1111122 
COMPS,ioos:station:USF.COMPS:ANC:1,2012-04-02T22:24:00Z,28.1930,-82.7890,1.0,29.725,1111122 
COMPS,ioos:station:USF.COMPS:ANC:1,2012-04-02T22:30:00Z,28.1930,-82.7890,1.0,29.665,1111122 
COMPS,ioos:station:USF.COMPS:ANC:1,2012-04-02T22:36:00Z,28.1930,-82.7890,1.0,29.624,1111122 